RH
14 12 11 10 9 9 8 8 8 7 6 7 7 6 7 7 6 8 10 7 5 4 -1 1 1 -1 6 26 41 29 21 48 65 56 61 65 51 40 55 82 84 82 100 105 98 103 103 101 103 100 97 93 86 73 55 50 55 66 69 52 38 35 45 72 69 38 27 32 36 41 42 43 46 48 52 57 61 61 51 45 45 48 45 34 24
13 11 10 9 8 8 7 6 6 7 6 5 6 6 5 7 6 7 11 11 9 6 1 1 -0 -0 14 28 32 24 19 37 53 54 63 70 59 42 52 76 73 70 95 105 99 104 103 102 104 97 89 77 67 64 63 62 63 71 75 59 46 41 37 51 64 51 33 27 31 36 38 41 42 44 48 50 55 56 49 44 41 40 42 37 27
13 11 9 9 8 7 6 7 6 5 6 5 5 6 5 5 7 8 9 11 12 7 2 3 -0 -1 16 34 32 18 11 21 36 45 49 52 57 52 55 73 71 63 84 100 103 106 100 101 103 93 85 78 67 62 64 67 67 73 81 70 60 58 45 42 62 65 43 28 29 32 34 36 38 41 46 47 51 52 46 43 40 33 32 32 31
13 10 9 8 7 7 5 5 6 5 5 6 4 6 6 5 6 8 9 8 10 8 3 1 -0 -1 10 32 38 20 6 11 21 35 46 45 43 46 57 78 77 65 81 98 103 104 99 101 102 94 93 93 84 76 72 75 80 85 92 89 81 78 68 57 59 54 40 32 30 28 28 32 34 37 43 45 48 48 43 40 36 30 26 26 29
13 9 9 8 6 8 7 5 6 5 5 5 5 5 5 6 6 6 9 8 7 6 3 1 1 1 7 27 42 27 7 14 22 26 37 36 22 26 57 85 79 67 84 103 105 101 99 100 100 97 98 99 98 91 80 84 98 99 99 100 93 88 84 75 66 55 44 38 38 35 28 26 29 31 35 38 41 43 42 38 34 30 26 24 24
12 9 8 8 8 7 7 6 6 6 6 5 5 6 5 6 6 7 8 9 7 5 2 1 -0 2 8 26 47 38 9 13 34 34 31 34 22 15 44 82 83 71 84 102 103 102 101 100 99 98 99 100 101 98 88 92 103 100 96 98 91 92 96 91 86 81 61 42 50 62 47 28 26 29 30 31 33 35 36 35 35 33 28 26 25
10 9 8 7 9 9 7 8 7 6 7 6 5 6 6 6 6 7 9 8 7 4 1 1 1 4 15 31 54 59 29 16 42 54 42 36 29 19 41 85 92 74 82 102 104 100 100 101 100 98 100 100 101 100 95 99 104 98 99 100 92 96 103 98 98 97 70 43 53 75 68 43 29 25 26 29 30 30 32 33 33 34 32 28 27
10 8 8 8 10 11 8 8 8 7 7 6 7 7 6 7 6 6 8 7 7 4 -0 2 3 8 30 55 73 82 61 30 35 62 65 48 36 26 35 76 98 82 79 97 104 102 101 101 100 100 100 99 102 101 95 96 102 101 103 102 94 98 103 100 103 99 74 57 61 73 77 65 46 32 26 25 25 25 26 30 32 34 34 31 30
10 8 9 10 12 13 11 10 9 8 8 7 8 8 7 8 6 5 7 6 5 5 2 5 7 12 39 72 86 87 77 46 28 47 64 57 46 34 28 58 95 95 84 84 88 94 102 104 101 101 102 99 101 103 92 90 101 103 102 101 94 99 105 102 107 105 89 78 67 63 76 78 64 53 36 21 25 34 33 29 27 29 33 34 31
11 10 10 11 13 14 13 12 10 9 9 9 9 10 9 8 7 5 5 4 6 7 7 7 7 12 32 61 82 85 81 67 43 34 50 62 56 42 31 40 61 72 76 76 73 80 97 105 101 100 102 99 102 105 89 84 99 103 102 103 96 98 105 102 102 106 103 97 83 78 90 83 59 51 42 27 35 61 73 62 44 32 30 30 29
13 12 13 13 14 16 16 13 11 9 9 10 11 11 10 9 7 5 3 5 7 10 13 10 6 14 28 50 80 93 86 81 64 41 51 79 82 63 41 28 28 37 48 54 63 80 97 105 103 103 104 99 102 105 85 76 96 104 102 104 96 94 104 103 99 101 103 104 99 97 104 91 57 38 36 34 40 63 89 95 76 50 33 28 27
16 15 16 15 14 18 19 15 10 9 9 10 12 12 12 10 7 5 4 6 10 15 18 12 9 20 33 48 81 101 95 89 79 58 51 65 79 80 63 39 29 33 34 33 45 61 71 77 82 93 105 104 104 104 88 80 96 104 103 103 96 94 103 103 101 104 102 102 102 99 102 102 85 61 44 36 39 55 78 93 87 63 38 29 30
19 18 17 17 16 19 21 16 10 8 8 10 12 12 13 11 7 6 6 8 12 17 17 16 22 38 48 56 77 99 101 93 89 84 74 64 62 63 58 51 48 42 35 32 35 37 36 39 50 70 94 106 105 104 98 95 100 102 102 102 98 98 103 101 101 106 104 100 102 101 100 103 104 97 79 53 39 46 60 73 79 68 48 39 37
24 22 19 18 19 22 21 14 9 7 7 9 13 13 13 11 9 11 15 14 15 16 18 30 49 61 61 60 70 89 100 96 93 99 101 94 81 56 34 37 48 47 44 45 48 49 40 34 46 69 91 101 102 103 103 100 101 102 101 101 102 102 100 98 101 106 103 100 100 100 101 102 101 104 103 83 57 40 38 55 76 72 58 55 51
31 27 22 20 23 27 25 15 6 5 7 9 12 14 14 11 12 20 27 28 30 33 42 62 78 78 73 71 75 86 94 91 89 94 96 99 98 72 38 28 32 40 51 54 58 67 59 43 45 63 82 98 104 104 103 100 100 102 101 100 104 103 98 96 102 105 102 100 101 100 100 102 101 100 104 103 90 61 41 62 93 87 67 64 63
39 32 25 24 26 29 31 24 11 5 6 9 11 14 16 15 17 28 37 39 42 51 67 84 92 89 90 95 94 90 84 73 67 67 69 78 86 75 57 47 40 42 55 60 62 68 63 46 39 48 70 97 107 105 103 102 101 101 101 102 103 102 99 98 102 106 103 98 99 101 100 101 102 103 103 104 106 92 68 74 100 99 79 69 64
45 39 30 30 33 34 34 31 20 8 5 8 10 12 17 22 26 36 45 45 45 55 72 90 98 98 102 107 104 92 73 55 48 49 54 64 68 63 60 59 53 55 68 73 68 62 51 43 48 63 84 102 106 104 103 101 100 103 105 106 104 100 100 101 103 108 108 102 100 101 102 101 100 103 105 101 102 106 95 87 94 92 78 67 62
47 44 35 34 39 41 39 36 26 13 5 7 10 10 17 28 36 43 49 50 48 56 74 92 102 104 106 106 106 98 76 57 58 72 84 82 70 61 61 56 47 53 71 78 69 55 45 45 59 79 96 104 104 102 102 100 101 105 107 105 103 100 100 102 103 100 97 99 102 101 99 101 100 101 104 101 98 103 104 100 101 95 77 66 66
49 48 40 35 37 40 41 37 29 17 8 7 9 10 15 29 42 50 54 56 55 59 76 93 101 105 107 105 105 103 91 79 83 99 108 105 92 78 67 56 48 55 75 84 71 53 46 53 68 84 96 104 105 101 100 101 103 105 104 102 102 101 99 101 103 96 88 89 98 102 99 100 102 100 100 101 100 103 103 102 107 105 87 70 67
51 50 43 37 34 37 41 38 29 20 13 9 9 10 14 26 43 55 60 62 59 58 70 86 95 101 105 104 106 107 99 94 101 107 104 104 107 97 75 62 64 76 93 97 77 58 55 61 74 91 101 104 104 101 101 103 104 103 99 98 100 101 98 100 103 101 96 92 94 99 100 99 101 101 101 100 99 103 107 104 103 106 95 77 67
52 52 49 42 35 35 39 38 30 21 15 12 10 9 13 26 46 63 68 65 59 55 60 73 90 102 102 101 106 109 102 98 104 109 103 98 104 103 89 81 86 96 108 106 84 70 72 70 73 90 103 104 102 103 105 104 102 102 98 96 100 101 96 96 100 101 102 100 97 99 101 101 101 101 101 101 99 103 109 108 103 104 102 92 85
52 51 52 47 37 33 35 36 30 21 16 15 12 10 13 28 51 70 75 69 62 58 58 67 88 105 104 100 103 106 104 103 104 107 105 100 100 103 100 98 100 102 108 108 94 85 86 82 77 85 99 108 105 101 106 106 100 100 100 99 101 101 96 96 99 97 98 100 100 100 100 101 102 101 100 101 101 105 110 108 103 102 102 102 101
49 50 52 48 38 31 31 32 29 22 17 15 15 13 13 25 52 75 81 77 73 68 63 66 86 105 103 99 102 103 101 103 104 105 106 102 101 104 103 102 103 102 103 105 104 101 96 89 84 84 94 104 95 83 94 107 102 99 102 101 101 101 99 99 100 98 98 99 98 98 99 101 102 101 101 102 104 108 109 104 99 99 102 103 102
45 49 51 47 38 30 26 26 25 21 18 15 15 17 16 22 44 71 86 88 85 82 75 70 80 100 105 99 100 102 101 102 103 106 107 103 101 104 105 102 101 103 104 103 107 112 102 87 83 84 85 84 72 70 91 107 103 100 101 100 100 102 101 100 101 100 100 100 99 99 100 102 102 101 101 102 106 109 106 96 89 91 97 102 103
42 48 49 44 37 27 22 22 21 20 19 16 15 19 21 23 35 59 84 95 95 93 90 81 78 90 102 102 99 100 102 102 101 103 106 105 101 100 103 102 100 104 108 106 107 113 107 91 86 88 83 72 68 83 104 108 101 101 101 98 100 102 101 101 102 101 101 101 101 101 101 102 102 100 100 101 105 109 107 97 89 86 89 94 98
41 47 46 39 31 24 20 20 19 18 19 18 16 19 25 28 34 51 77 97 102 100 98 93 86 86 96 103 102 100 101 102 100 101 105 105 103 100 100 101 101 103 107 106 106 110 108 99 93 91 85 76 78 97 110 105 99 101 100 99 100 100 100 102 102 101 101 100 101 102 101 101 101 100 100 101 102 105 106 103 99 97 96 94 93
41 44 43 36 27 22 20 19 18 17 18 18 17 18 25 32 37 49 71 92 103 103 101 101 98 91 94 104 106 101 101 102 100 100 103 104 103 101 101 101 101 102 104 105 107 109 108 103 97 94 91 89 91 103 109 104 100 101 100 100 101 100 101 102 101 100 100 100 101 102 100 99 100 100 101 102 100 102 103 103 102 103 104 103 101
40 41 40 33 24 20 20 19 18 19 18 19 19 19 25 35 40 47 66 87 101 104 103 104 101 92 91 101 105 101 101 103 101 99 101 103 103 100 100 101 101 102 104 104 105 105 105 104 103 102 102 101 100 105 108 106 104 103 101 100 100 100 101 102 101 101 101 101 102 102 99 97 98 100 102 102 101 101 100 98 96 97 100 103 104
40 39 38 32 23 20 20 19 19 22 23 25 26 23 24 35 44 46 56 78 98 106 105 104 101 92 90 98 105 104 102 102 101 100 100 101 101 101 100 101 100 101 102 101 102 103 102 103 106 107 106 107 107 106 106 105 106 105 102 100 100 101 101 102 101 101 101 101 102 102 100 99 100 101 102 101 100 101 100 96 93 91 92 95 95
41 39 36 29 21 19 22 22 21 24 28 35 41 36 28 33 45 51 53 64 87 105 108 106 104 97 93 98 104 105 103 101 101 102 101 100 101 101 101 100 100 101 101 100 102 103 101 102 106 106 105 107 109 109 107 106 107 107 103 100 101 101 100 101 102 101 101 101 101 101 101 100 100 101 102 101 100 100 100 100 98 95 92 89 85
44 38 32 26 21 21 26 30 31 31 33 41 50 50 39 33 41 53 56 55 66 89 104 110 110 104 99 101 104 103 101 101 101 101 100 100 100 101 101 101 100 100 101 100 101 102 101 102 105 105 105 106 107 109 110 109 107 107 104 101 102 102 101 101 102 102 101 101 101 101 101 101 100 100 101 101 101 100 100 101 101 101 100 97 92
49 43 32 24 24 29 37 45 50 49 46 49 55 56 51 42 38 48 59 57 54 65 83 100 111 111 105 103 103 102 101 101 102 102 101 101 101 100 101 102 101 100 100 101 101 101 101 101 101 102 104 106 105 106 108 108 107 108 107 105 104 102 101 101 101 101 101 101 101 100 100 100 100 99 99 100 101 101 100 101 100 100 102 102 100
50 48 39 29 30 41 53 62 69 69 64 63 64 61 59 53 44 43 54 61 58 56 60 74 93 107 110 107 103 102 101 101 101 102 102 101 101 101 100 101 101 100 100 100 101 101 101 101 101 101 101 103 104 103 103 105 106 108 110 109 105 101 101 101 101 101 102 101 101 101 100 99 100 100 99 100 100 100 100 101 100 100 101 102 101
54 50 43 37 41 55 71 80 84 86 84 82 79 72 65 61 53 46 49 57 64 62 58 57 65 79 95 105 106 104 103 102 100 101 102 102 101 100 101 101 101 100 100 100 101 101 101 101 101 101 100 101 103 102 101 102 103 103 107 110 107 103 102 102 100 101 101 101 100 101 100 100 101 100 100 101 100 99 99 99 100 100 101 101 102
65 59 50 45 48 64 82 90 92 97 101 100 92 80 70 66 62 54 48 52 60 66 67 66 62 61 70 86 97 101 104 104 102 100 100 102 101 100 100 101 101 101 100 100 100 101 101 101 101 101 101 101 101 101 101 102 101 101 105 108 106 104 105 104 102 101 101 100 101 101 101 101 102 101 102 102 101 100 99 99 99 99 98 99 100
77 75 66 56 54 67 84 93 93 99 109 110 98 82 73 72 71 62 52 48 52 59 67 72 74 70 68 73 82 91 97 101 104 104 102 100 101 101 101 100 101 101 101 101 100 100 100 101 101 101 101 101 101 101 102 102 101 100 102 104 103 103 104 106 104 102 102 102 101 101 101 101 101 102 103 103 102 101 101 99 98 98 97 96 97
88 91 82 70 66 72 83 90 92 98 107 110 102 88 77 74 72 65 55 48 47 50 57 66 74 79 80 80 83 87 90 91 94 99 103 103 101 101 102 102 101 101 101 101 100 99 99 101 101 101 101 101 101 101 101 101 101 101 101 101 101 100 101 103 103 102 102 102 102 101 101 101 101 101 101 101 101 101 100 100 100 100 99 98 98
96 102 95 84 78 78 81 85 89 97 104 107 105 97 87 79 74 66 58 53 49 47 49 56 64 74 81 88 92 92 91 91 89 88 94 100 101 101 102 102 101 101 101 101 101 100 99 100 101 101 101 101 100 101 101 101 101 101 101 101 101 100 100 101 101 101 101 102 103 102 102 101 101 101 101 101 101 101 100 100 101 100 100 100 100
99 105 99 88 82 85 90 89 89 97 106 109 109 105 97 89 82 74 65 59 56 53 50 50 55 61 71 85 96 97 94 95 94 90 89 94 97 99 102 103 102 102 101 101 101 101 101 100 100 101 101 101 100 100 101 100 100 101 101 101 101 100 100 100 100 100 101 102 102 102 102 101 101 100 101 102 102 102 102 102 102 102 102 103 103
101 107 98 82 77 91 103 99 93 98 105 104 103 105 104 101 97 90 81 73 68 64 59 55 54 55 58 69 85 95 95 94 94 93 92 94 97 99 102 103 104 104 103 101 100 100 101 101 101 100 100 101 100 100 100 100 100 101 101 101 101 101 101 101 100 100 100 100 100 101 101 101 100 100 101 102 102 102 103 102 101 102 102 102 102
103 108 99 83 81 99 112 106 98 101 103 99 98 102 104 104 104 103 99 92 84 77 71 65 61 60 57 56 63 75 84 89 91 90 89 91 94 98 101 102 103 103 103 103 103 102 100 100 101 101 100 100 100 100 100 100 101 101 101 101 102 102 102 102 101 101 101 100 100 100 100 100 100 100 100 100 101 102 102 102 101 101 101 101 101
103 106 102 91 90 104 113 106 100 102 102 100 102 106 104 101 100 101 101 100 95 89 84 77 70 67 65 62 59 59 64 73 80 84 84 86 89 92 96 100 103 104 102 102 103 103 102 101 101 101 100 100 100 100 100 100 100 100 101 101 101 101 101 102 101 101 101 100 100 101 101 101 102 102 101 101 101 101 101 102 101 100 100 100 100
99 98 96 92 94 104 109 104 100 103 104 103 104 106 105 103 101 99 96 94 92 91 89 86 80 73 69 66 64 61 59 60 64 69 74 79 84 87 89 91 96 100 102 102 102 102 102 101 101 101 101 101 101 100 101 101 100 100 100 101 101 100 101 101 101 101 101 100 100 101 100 101 103 104 103 101 101 101 101 101 101 101 101 100 100
88 83 83 88 98 106 106 102 101 103 105 106 104 101 101 102 104 102 97 90 84 81 80 80 80 78 73 68 65 62 61 61 60 60 62 66 72 78 83 85 87 91 95 99 101 102 102 101 101 101 101 101 101 101 101 101 101 100 100 100 100 100 100 101 101 101 100 100 100 101 100 100 101 102 101 101 101 101 101 101 101 101 102 101 101
82 79 82 93 105 107 104 104 107 106 104 104 103 100 100 103 105 104 97 87 77 72 70 69 69 70 70 70 67 63 61 61 61 60 60 60 61 66 71 76 80 83 87 92 96 100 101 101 101 101 100 100 100 101 101 101 101 101 100 100 101 101 100 101 100 100 100 100 100 101 101 101 100 100 100 100 100 100 100 100 100 100 101 101 101
79 81 87 97 107 108 105 106 109 106 101 100 101 101 102 103 102 98 89 77 68 64 61 59 60 62 63 65 66 65 62 60 59 58 58 58 59 59 61 64 68 72 77 83 89 94 98 100 101 100 100 100 101 101 101 101 101 101 101 100 100 101 101 101 100 100 100 100 100 100 100 100 101 101 101 101 101 101 100 100 100 99 99 99 98
78 85 93 100 107 110 110 109 108 104 100 99 101 102 101 98 93 86 76 66 59 56 51 48 50 55 57 59 60 61 60 59 58 56 54 53 53 54 54 55 57 59 63 68 74 81 88 94 97 98 98 99 100 101 101 101 100 101 101 100 100 100 101 101 101 101 101 100 100 101 101 101 101 101 102 101 101 101 101 101 101 101 100 100 100
82 87 96 103 106 106 104 102 100 98 96 96 95 93 89 84 77 70 64 59 57 55 52 48 47 48 49 50 52 52 52 52 52 52 52 51 49 48 48 48 48 49 51 53 57 62 69 77 85 89 91 93 95 97 100 100 100 100 101 101 100 100 100 100 100 100 100 101 100 101 101 101 101 101 101 101 101 101 101 100 101 100 100 100 101
95 94 97 103 104 97 88 84 84 85 85 85 83 80 77 75 72 69 67 66 62 58 54 52 50 48 46 45 45 45 45 45 45 45 45 45 45 43 42 40 39 40 41 42 44 46 49 55 64 72 79 83 85 87 90 92 94 95 97 98 99 99 99 99 99 100 100 101 101 100 100 101 101 101 101 100 100 100 100 100 100 100 100 101 101
104 100 99 100 98 91 83 78 77 77 78 79 79 77 75 75 75 75 73 69 64 59 56 53 51 48 46 43 41 39 38 37 37 37 37 37 36 36 35 34 33 32 31 32 33 34 35 37 41 48 56 64 70 74 77 79 82 85 88 90 91 93 94 94 95 97 98 99 100 101 101 101 101 102 102 101 101 101 101 101 101 100 100 100 101
103 102 100 98 95 91 86 82 80 79 80 81 80 79 77 76 75 74 72 67 63 60 57 53 50 46 42 40 37 35 32 30 28 28 28 28 28 28 28 28 28 27 26 26 26 26 26 26 27 29 32 38 45 52 58 63 68 72 75 78 81 84 85 87 88 90 92 93 95 97 99 99 99 99 99 98 99 100 101 102 103 103 104 104 104
Wind_Speed
59 60 61 61 62 62 62 61 60 59 57 55 54 53 53 53 54 55 55 54 52 52 54 55 54 53 57 59 57 59 63 65 66 66 63 60 61 66 68 65 64 67 66 61 54 52 55 56 52 48 45 43 41 40 40 39 36 33 31 28 26 26 26 31 33 30 28 30 30 31 32 32 31 30 29 28 27 27 26 24 24 25 26 27 29
61 62 62 61 61 60 60 59 58 58 57 55 54 53 53 53 53 54 55 53 52 53 54 55 55 52 53 58 59 60 63 65 66 66 64 63 63 66 69 67 66 69 68 63 58 56 57 57 53 50 48 43 39 38 39 39 36 35 32 29 28 28 29 33 33 29 29 31 31 31 33 33 33 33 32 31 30 30 29 26 26 27 27 27 28
64 64 64 62 60 60 59 58 56 55 55 55 54 53 52 53 53 53 54 54 52 53 55 55 55 53 53 57 58 59 64 66 67 67 65 64 65 67 69 68 67 69 68 63 59 58 59 58 54 51 49 45 38 36 38 38 36 36 34 32 30 29 30 31 30 28 29 30 31 32 33 34 34 34 34 34 34 33 32 30 29 29 28 28 28
67 67 66 63 61 59 58 57 55 54 53 53 52 52 52 52 52 52 53 53 52 53 56 56 56 54 53 56 57 57 63 67 68 68 66 64 63 66 70 69 67 67 66 63 61 60 60 59 56 53 51 47 40 36 37 37 36 36 36 35 33 32 32 31 30 30 29 30 31 32 34 36 36 36 36 37 37 37 35 33 32 32 31 30 29
69 68 67 64 62 59 58 56 54 52 51 51 50 50 50 51 51 50 51 52 52 53 55 56 56 54 53 55 56 56 61 66 68 69 69 67 64 64 68 70 69 67 65 63 63 62 61 60 57 54 51 48 43 39 39 38 35 35 35 35 34 34 33 32 31 30 29 29 31 32 33 36 37 38 39 39 39 39 38 37 36 35 35 33 32
70 69 67 64 62 60 57 55 53 51 49 48 48 47 48 49 49 49 49 50 50 52 54 55 55 54 54 56 57 56 59 65 68 68 70 70 67 66 68 69 70 69 66 65 65 63 62 61 59 55 53 51 48 44 42 39 35 34 35 35 34 34 34 33 32 30 29 28 29 31 33 34 36 38 40 41 42 42 41 41 39 38 38 37 36
71 69 66 63 61 60 57 54 51 49 47 46 45 45 46 47 48 47 48 48 49 51 54 55 55 54 55 57 59 58 60 65 69 70 70 72 71 68 68 69 69 69 67 67 68 65 63 61 60 57 55 55 53 49 45 41 37 36 37 36 36 35 33 34 34 32 30 27 28 30 32 33 35 37 39 40 42 43 43 43 43 42 41 40 38
71 68 65 62 59 59 57 53 49 47 45 43 43 43 44 46 46 46 47 47 48 51 54 56 56 56 56 57 59 61 61 65 70 72 72 73 73 71 70 70 70 70 69 67 67 67 65 63 62 62 60 58 57 54 50 46 43 42 41 40 39 36 33 33 34 33 29 27 27 28 30 32 35 36 37 39 40 41 43 45 45 44 42 41 40
72 67 63 59 56 56 56 52 47 45 43 41 41 42 43 44 44 45 46 46 47 51 55 57 57 57 57 58 59 60 61 63 69 73 74 74 75 74 72 72 72 72 72 71 69 70 70 68 66 66 64 62 60 57 54 52 50 47 47 46 43 38 34 33 34 33 30 28 28 28 29 31 33 34 36 38 38 38 40 43 45 44 43 43 42
72 66 61 57 54 54 54 51 46 43 41 39 39 40 42 43 43 44 45 47 49 53 56 57 58 57 58 60 60 59 60 62 66 72 74 74 76 79 78 75 73 72 72 72 72 72 73 72 69 67 66 65 62 61 59 58 55 52 51 50 48 43 37 34 35 35 33 31 31 30 31 31 31 33 36 37 38 37 38 40 43 44 45 46 44
72 65 60 57 53 52 52 50 44 41 40 39 38 39 40 41 43 44 45 48 51 54 56 58 58 57 57 59 60 59 60 60 62 67 73 73 75 78 80 79 76 71 69 69 70 72 72 71 70 68 68 66 65 64 63 61 58 54 53 54 53 48 39 35 37 38 36 36 35 33 32 31 30 32 36 39 40 39 38 40 42 44 46 46 45
70 64 60 57 53 50 49 48 44 40 39 38 37 37 39 41 42 44 47 50 53 55 57 58 58 57 56 57 60 60 60 59 58 61 68 72 74 75 78 79 77 73 70 67 67 69 69 68 69 71 71 68 65 65 65 63 59 56 55 57 57 52 43 38 39 40 39 40 40 37 35 34 32 32 35 39 43 43 41 41 42 43 43 44 44
68 62 58 56 52 47 45 45 42 39 37 37 36 36 37 40 42 45 48 52 55 56 57 58 57 56 55 56 59 60 61 61 59 58 62 66 71 74 75 75 74 73 70 67 65 66 67 67 68 72 74 71 67 65 66 63 60 58 58 58 57 54 47 42 42 43 42 44 44 41 38 37 37 36 36 38 42 45 45 44 43 42 42 42 43
66 61 56 54 51 45 41 41 40 38 36 35 35 35 36 39 43 46 51 54 55 56 57 57 56 55 55 56 58 59 60 61 60 59 60 60 63 68 72 73 74 72 69 67 65 65 67 68 68 70 72 71 69 67 66 64 61 60 60 57 56 54 50 45 44 45 45 45 46 43 41 40 39 37 37 38 41 44 47 48 47 45 44 44 44
65 60 56 53 49 44 39 38 38 37 35 33 33 34 36 39 43 48 53 55 56 56 57 56 55 54 54 55 56 57 58 60 59 60 61 60 58 61 66 71 73 72 70 69 67 65 66 69 70 70 69 69 68 67 67 65 62 62 61 58 56 55 51 47 46 47 47 46 46 45 44 43 41 38 37 39 41 43 47 49 49 48 47 47 47
65 60 55 52 50 45 40 37 37 36 34 32 32 33 35 40 45 50 55 57 57 57 57 56 55 54 53 53 54 54 55 56 56 58 61 62 61 59 60 65 69 70 70 71 70 68 65 66 68 70 70 69 66 65 66 65 63 63 62 60 58 56 53 51 50 49 47 46 46 47 46 46 44 41 40 41 42 44 47 49 50 51 51 51 51
64 60 56 52 49 46 41 38 36 35 33 32 32 33 36 40 46 52 56 59 59 58 57 56 54 53 52 52 52 52 52 51 52 54 57 61 62 59 58 62 66 67 66 68 69 67 64 63 65 67 69 69 66 64 64 64 64 63 62 62 60 58 56 55 53 51 49 48 47 49 49 49 47 45 44 44 44 45 47 49 52 54 56 56 56
63 59 56 51 48 46 42 37 35 34 33 31 32 34 37 42 47 53 58 59 59 58 57 55 54 52 51 50 50 50 49 48 48 48 51 56 59 59 59 62 66 67 66 65 66 65 63 63 63 65 68 69 66 63 63 64 65 63 62 62 61 59 59 58 55 52 52 52 51 51 51 51 49 48 47 48 47 46 48 51 54 57 59 60 60
62 58 56 52 49 47 43 37 34 33 32 31 32 35 38 43 48 53 58 59 59 58 58 56 54 52 50 49 48 48 46 45 45 45 46 49 53 57 61 63 65 68 68 67 67 65 64 64 64 65 69 68 65 63 64 65 66 65 64 63 62 60 60 59 58 56 55 54 53 52 50 49 49 50 51 51 50 49 49 52 55 56 58 61 63
61 58 56 53 51 48 43 37 33 32 31 31 33 35 40 44 47 52 57 59 59 59 59 58 57 54 51 49 48 48 46 44 44 44 42 44 49 55 61 63 65 70 73 71 69 67 65 65 64 65 66 66 64 64 66 67 67 67 66 65 63 62 61 60 59 59 58 58 56 52 49 49 51 54 55 56 55 52 50 52 54 55 57 60 63
61 57 55 54 51 48 43 37 33 31 30 31 33 36 41 45 47 50 55 58 59 60 59 59 59 57 54 50 49 48 47 45 45 44 41 42 48 54 59 64 67 72 76 75 72 71 69 66 64 64 65 66 65 65 66 68 68 68 66 65 64 63 61 60 61 61 61 60 59 55 53 53 55 57 59 59 58 55 52 52 53 53 55 59 61
59 55 53 53 51 48 43 38 34 31 29 30 34 37 41 45 48 50 55 58 59 59 59 58 59 58 56 53 50 49 48 47 47 45 43 43 47 51 57 64 69 74 77 76 75 74 72 69 67 66 67 67 65 64 64 66 67 68 67 64 63 63 63 62 62 63 63 63 61 59 58 58 59 60 60 60 59 56 53 52 53 53 54 56 58
56 52 51 51 50 47 43 39 35 31 29 29 33 38 41 46 50 52 55 57 58 59 59 58 59 59 58 56 53 51 49 48 48 47 45 45 48 51 57 64 69 74 77 77 77 77 75 72 71 70 70 69 67 66 65 64 63 65 64 62 61 62 63 63 62 64 68 69 67 65 64 63 62 61 60 60 58 56 53 52 52 52 52 53 53
52 48 48 49 48 46 42 38 34 31 30 29 32 37 41 46 51 53 55 57 58 59 59 58 59 60 60 58 56 54 51 50 50 50 48 47 50 54 58 64 70 74 78 79 79 79 78 75 73 73 72 71 70 70 68 64 61 60 60 60 61 63 65 64 61 63 68 71 71 71 71 69 66 62 58 58 58 55 52 51 51 51 51 52 52
48 45 45 46 46 45 42 38 33 31 31 30 31 36 41 45 50 54 55 57 59 59 59 59 59 60 61 60 58 56 54 53 52 52 50 49 52 56 60 64 69 74 78 81 81 82 81 78 75 75 75 73 72 71 69 64 61 59 57 58 62 65 67 67 64 63 66 70 73 74 73 72 70 65 60 58 58 56 53 52 52 51 51 52 52
47 43 43 44 44 43 41 37 33 30 31 31 30 34 41 44 48 52 55 56 58 59 58 57 58 59 60 61 60 59 56 55 55 55 53 51 53 57 61 65 68 72 77 81 83 83 84 82 79 78 77 76 75 73 69 66 64 63 61 61 63 65 68 70 70 69 70 72 74 76 76 75 73 69 64 61 59 58 56 54 53 52 52 52 53
46 42 42 42 42 40 38 35 32 30 31 32 31 33 39 44 47 51 54 56 58 60 58 57 56 57 58 60 61 61 59 57 57 57 56 54 54 57 62 66 69 71 75 80 83 85 85 83 81 80 79 79 78 76 73 70 68 67 66 67 68 68 68 70 72 74 75 76 77 79 80 79 76 73 70 67 65 63 61 59 57 56 55 54 54
45 41 41 42 40 38 36 33 31 30 30 31 32 32 36 42 46 49 53 56 58 60 60 58 56 55 56 58 60 61 60 59 59 59 59 57 56 57 61 66 69 71 73 77 81 84 86 85 84 82 81 81 81 80 77 75 73 72 71 72 73 74 73 72 72 74 76 78 80 81 82 83 81 77 75 74 73 70 68 66 65 63 62 61 60
45 41 41 41 39 36 34 31 30 30 30 30 31 32 34 39 43 47 52 56 58 61 62 60 57 55 55 57 59 60 60 60 60 61 61 60 58 59 61 65 69 72 74 76 78 81 84 86 86 85 84 83 83 82 82 80 78 77 77 76 77 79 80 78 76 76 77 78 79 81 83 84 85 83 81 80 80 78 76 75 73 71 70 69 68
44 41 40 40 39 36 32 30 29 29 29 29 30 31 32 35 40 44 49 54 58 61 63 63 59 56 55 56 58 60 61 61 61 62 63 62 61 61 62 64 67 71 74 76 78 79 81 83 84 85 86 86 85 84 84 84 83 82 82 81 81 83 84 84 83 81 80 80 80 81 83 84 85 85 85 85 85 85 84 82 81 79 78 77 75
43 41 39 38 38 36 32 30 29 29 29 29 29 30 32 33 36 40 45 50 55 59 63 64 63 60 57 56 57 59 61 62 62 64 64 63 62 62 63 65 67 69 72 75 78 80 81 82 82 83 85 86 87 86 86 87 87 87 87 86 85 86 87 87 87 86 84 83 83 83 84 85 85 86 87 87 88 88 88 87 86 84 83 82 81
41 40 39 38 38 36 32 30 29 29 29 29 29 29 31 32 34 37 41 45 50 55 59 63 65 64 61 59 58 59 60 62 63 65 66 66 65 64 64 66 69 70 71 73 76 79 81 82 83 83 83 85 86 87 87 88 89 91 92 92 91 90 90 90 90 90 89 88 87 87 87 87 87 88 89 90 91 91 91 91 91 89 88 87 87
39 39 40 39 38 36 33 31 31 29 29 30 30 29 30 31 33 35 37 41 46 50 54 58 62 64 65 64 63 62 61 61 63 64 67 68 68 67 66 66 69 71 72 73 73 76 79 81 83 83 83 84 86 87 88 89 90 92 94 96 95 94 93 92 92 92 92 91 91 90 90 90 90 90 90 91 92 94 94 95 94 93 92 91 91
40 40 40 39 39 37 34 33 32 30 29 30 30 31 30 30 32 34 36 39 42 47 51 54 57 60 63 66 67 67 65 64 63 63 65 67 69 70 69 68 68 71 73 75 74 75 77 79 82 83 83 83 85 87 89 90 91 92 94 96 97 97 96 95 95 95 95 94 93 93 93 93 93 92 92 93 94 95 96 97 96 95 94 93 93
43 43 42 40 39 37 35 34 33 31 30 31 32 32 31 29 30 33 36 38 41 45 49 51 53 55 59 62 66 69 70 70 68 66 65 65 67 69 71 71 70 70 72 75 77 77 77 77 79 82 84 85 85 86 87 89 91 92 93 95 97 98 98 98 98 98 98 98 97 97 96 96 95 95 95 96 96 97 98 98 99 98 98 97 97
45 46 45 43 41 39 37 35 34 32 32 32 33 32 31 29 28 30 33 37 40 43 47 51 52 53 54 57 61 65 69 72 73 72 70 68 67 68 69 71 72 71 71 73 76 78 80 79 79 79 81 83 85 86 87 88 89 91 92 93 95 96 98 100 101 101 101 101 100 100 100 99 99 99 99 99 99 100 100 101 101 102 102 102 101
47 47 47 46 44 42 39 37 35 34 33 33 33 32 30 29 28 28 30 33 37 41 45 50 53 54 54 55 57 60 64 68 72 75 76 75 72 70 69 70 71 72 72 73 75 77 79 81 82 82 82 82 83 84 85 86 87 88 90 91 92 94 95 97 99 100 101 102 103 103 102 102 102 102 102 102 102 103 103 104 104 105 105 105 105
49 49 49 49 47 45 42 38 36 34 33 33 33 32 31 29 28 28 28 29 32 36 41 47 52 56 57 56 56 57 59 62 65 70 74 77 78 77 74 72 71 71 72 73 75 77 78 80 82 84 85 85 85 84 84 83 84 85 87 89 91 92 93 94 95 96 98 99 101 102 103 103 103 102 102 102 103 103 104 105 106 106 107 107 107
51 51 52 50 48 46 44 40 36 34 33 33 33 32 32 31 30 29 28 27 29 32 36 41 47 53 58 60 60 59 58 60 62 65 68 72 76 78 78 78 76 75 73 73 74 76 78 80 81 82 84 86 88 88 87 86 85 85 86 87 89 90 91 92 93 94 95 96 97 98 99 101 102 102 102 102 102 103 103 104 105 105 106 107 108
50 52 52 50 46 45 44 41 38 36 35 35 34 34 33 33 33 32 31 29 28 29 32 36 40 46 53 59 63 64 63 62 63 64 66 69 72 74 76 78 79 79 78 76 75 75 76 78 80 82 83 85 86 88 89 89 89 89 90 90 90 91 91 91 92 93 93 93 94 94 95 97 98 99 100 101 102 102 102 103 103 103 103 104 105
52 54 54 51 46 44 44 42 39 38 38 37 36 34 34 35 36 35 35 34 32 32 32 33 36 40 46 52 59 65 68 68 68 68 68 69 72 75 76 77 79 80 81 81 81 80 79 79 79 81 83 84 86 87 88 90 91 92 92 93 93 94 94 94 94 95 95 94 94 94 94 95 96 97 98 99 99 100 101 102 102 102 102 102 103
55 57 57 53 47 44 43 43 42 41 41 39 37 36 36 37 38 39 39 38 38 37 36 36 37 39 41 45 51 57 64 69 72 74 73 72 73 76 79 81 81 82 82 83 84 85 85 84 83 82 83 84 86 87 89 90 91 91 92 93 94 95 95 96 96 97 97 98 98 97 97 97 97 97 98 98 98 99 100 101 101 101 102 102 102
55 55 54 50 45 44 44 44 43 43 43 42 40 39 39 41 42 42 43 43 42 42 42 42 42 42 43 44 47 51 56 62 68 73 76 77 76 77 79 82 85 87 87 87 87 87 88 89 89 88 87 86 87 88 89 91 92 92 93 93 94 95 95 96 97 97 97 98 99 100 100 101 100 100 100 99 99 99 100 100 100 100 100 101 101
54 50 47 44 44 45 45 44 44 44 45 44 43 43 43 44 45 46 46 46 46 46 46 46 47 47 48 48 48 50 52 56 60 66 71 76 79 80 81 82 85 88 91 92 92 92 92 92 93 93 92 92 91 90 91 92 93 94 95 95 96 96 97 97 98 98 98 99 99 100 101 102 102 103 103 103 102 102 102 102 102 102 102 102 102
51 47 44 43 45 47 46 45 45 45 45 46 46 46 47 48 48 49 49 49 48 49 49 49 49 49 50 51 52 53 54 55 57 60 65 69 75 80 83 85 86 88 91 94 96 97 97 96 96 96 97 97 96 96 95 95 95 95 96 97 98 99 100 100 101 101 101 102 102 102 103 103 103 104 104 104 104 104 104 104 104 105 105 105 105
49 46 43 43 46 48 48 48 47 47 47 48 49 50 51 52 52 53 53 52 52 51 51 50 50 51 51 52 53 55 56 58 59 61 63 65 69 74 79 83 87 90 92 94 97 99 101 102 102 101 101 101 101 101 101 100 99 99 99 99 100 101 102 103 103 104 104 104 105 105 105 105 105 105 105 105 105 105 105 105 106 106 106 106 106
48 46 45 46 48 50 51 51 50 50 50 51 53 54 55 56 56 57 57 56 55 54 53 52 51 51 52 52 53 55 57 59 61 63 65 67 69 71 74 78 83 88 92 95 98 100 103 105 107 107 107 106 105 105 106 106 106 105 104 104 103 103 103 104 104 105 106 107 107 108 108 108 108 108 108 108 108 108 108 107 107 107 107 107 106
47 47 48 49 51 52 54 54 54 54 55 55 56 57 58 59 59 59 59 58 57 56 55 54 54 53 53 54 56 57 58 60 62 64 66 68 71 73 75 77 80 84 89 93 97 101 104 106 109 111 112 112 112 111 111 111 111 111 110 110 110 109 109 108 107 107 107 107 108 109 110 110 111 111 111 111 110 110 110 110 110 109 109 108 108
48 49 50 52 53 53 55 56 56 56 57 58 58 59 60 60 61 61 61 61 61 60 59 59 58 58 58 59 59 60 62 63 64 66 68 70 72 75 77 79 80 82 85 89 94 99 103 107 110 112 114 116 117 117 117 117 117 116 116 116 116 116 115 115 114 113 112 112 111 111 112 112 112 112 112 112 111 111 111 111 111 111 111 110 110
50 50 52 53 54 54 55 56 57 58 58 59 60 61 61 62 63 64 64 65 65 64 64 64 63 63 63 63 63 63 64 65 67 68 70 71 73 75 77 79 81 83 85 88 91 94 99 104 108 112 115 117 119 121 122 123 123 123 123 122 122 122 122 121 120 120 119 118 118 118 117 117 117 116 116 115 115 114 114 114 114 113 113 113 113
51 52 53 54 56 57 57 58 59 60 61 62 63 64 65 65 66 67 68 68 67 67 67 67 67 66 65 65 64 65 65 65 66 67 68 70 72 74 76 78 80 81 83 86 88 91 94 98 102 106 110 114 117 120 123 125 126 127 128 128 128 128 128 127 127 126 125 125 124 124 124 124 124 123 123 122 121 121 120 120 119 119 119 118 119
Wind_Direction
306 304 302 300 299 298 296 295 293 291 289 285 282 279 275 272 269 267 264 260 257 252 249 247 244 241 239 238 235 230 223 218 219 222 222 221 218 216 216 214 210 211 213 215 217 220 225 230 231 232 232 229 226 226 227 230 233 237 239 235 231 228 225 231 236 234 232 231 229 229 229 228 229 230 231 234 236 239 240 237 235 236 236 235 234
309 307 305 303 301 298 296 294 293 291 288 286 282 279 276 272 268 266 263 260 255 250 247 245 243 241 237 233 231 228 223 217 216 218 221 221 218 216 215 212 208 209 212 216 218 219 223 227 229 231 234 232 227 224 225 229 232 236 237 232 228 227 226 229 233 233 235 236 234 233 233 231 230 232 233 236 239 241 242 241 241 240 236 235 234
312 310 308 306 303 300 297 295 293 290 288 285 282 279 276 272 268 264 261 258 254 249 246 244 242 240 235 232 230 227 221 218 216 216 218 219 218 217 214 210 207 209 213 216 217 219 221 224 227 231 234 235 232 227 227 231 233 234 234 231 229 229 232 235 235 231 233 237 238 238 238 236 234 233 235 237 239 242 243 243 244 243 240 237 235
315 313 310 308 305 301 298 295 293 290 287 284 282 279 275 272 268 263 259 256 252 247 244 242 240 238 234 231 230 227 221 218 216 214 215 216 216 216 214 210 208 210 214 215 215 216 219 222 225 229 232 234 234 231 231 233 233 232 232 232 233 234 235 236 237 234 233 236 239 240 240 240 238 236 237 238 239 241 243 243 244 245 244 241 238
316 314 312 310 307 303 299 296 294 291 287 284 281 278 274 271 267 262 257 254 250 245 242 240 238 236 233 230 229 227 222 219 218 215 214 215 215 214 213 212 210 211 215 216 213 214 218 221 223 228 231 232 231 231 233 232 231 229 230 232 234 236 236 236 238 240 240 237 240 243 243 242 241 239 239 240 241 242 243 243 244 245 245 244 241
317 315 313 311 307 303 300 297 294 291 287 283 280 277 273 270 266 262 256 252 247 242 238 236 234 232 230 228 227 226 223 220 220 218 216 216 216 215 214 214 213 214 215 216 213 212 216 220 223 226 230 230 230 231 232 231 227 226 227 230 233 235 238 241 245 248 247 240 237 242 245 245 244 243 241 242 242 243 243 244 245 245 246 245 244
318 316 313 311 307 303 300 298 295 291 287 283 278 275 272 268 265 260 255 250 244 238 233 231 229 227 227 226 224 223 222 221 220 220 219 217 216 214 213 214 215 215 214 214 213 212 215 219 222 226 229 229 229 230 230 228 226 227 229 230 234 238 241 246 249 249 247 240 234 238 244 246 245 245 244 244 244 243 244 244 244 245 246 247 247
319 316 313 310 306 302 299 298 295 291 287 282 278 274 270 267 263 258 253 248 241 235 229 226 225 224 223 223 222 221 221 221 220 220 221 220 217 215 213 214 215 214 212 213 214 213 215 218 221 225 228 228 228 230 229 227 227 230 233 235 239 240 242 245 246 245 243 239 235 236 242 246 247 247 247 247 246 244 242 241 241 242 245 247 248
320 317 313 310 305 300 298 297 295 291 286 282 277 273 270 266 262 256 251 244 236 230 227 224 223 222 220 219 219 220 220 219 219 219 220 221 219 217 215 214 214 215 214 215 217 216 216 218 220 224 227 227 228 229 228 227 228 230 233 238 240 239 240 244 245 242 240 240 242 245 247 249 252 251 249 249 247 243 240 239 240 240 242 244 246
321 318 313 309 305 300 297 296 295 290 285 280 276 272 268 265 260 253 247 239 231 227 225 224 223 222 220 218 218 219 220 219 219 218 218 220 220 219 216 213 212 214 216 217 219 219 219 219 219 222 225 226 228 229 227 226 228 229 230 236 238 236 237 242 242 238 237 239 244 248 248 250 253 253 250 248 246 243 241 240 240 240 240 242 244
322 319 314 310 306 301 297 295 294 290 283 278 273 270 266 262 256 249 242 234 228 225 223 224 224 223 221 218 217 218 219 220 220 219 217 219 220 219 218 214 212 214 218 219 219 220 221 221 222 223 225 226 229 230 227 226 228 229 229 233 236 235 235 239 239 235 234 237 242 246 247 250 254 254 249 246 246 247 246 244 242 241 240 241 242
323 319 315 311 307 303 297 294 293 290 283 276 271 267 263 258 251 244 237 231 227 223 222 223 224 224 222 219 218 218 219 220 221 220 219 220 221 220 218 215 214 215 217 218 219 220 223 225 227 227 227 229 231 230 227 227 229 229 229 232 236 237 235 235 237 235 233 235 239 242 244 249 255 256 252 247 246 247 247 245 244 242 241 241 241
323 320 316 313 310 305 298 294 292 289 283 275 268 264 258 253 246 239 233 229 225 222 221 222 222 223 223 221 219 219 219 220 220 220 221 222 223 223 219 215 213 214 215 215 218 222 225 226 228 230 230 232 233 231 228 229 229 228 228 231 236 238 235 233 235 236 234 233 236 239 241 247 253 257 256 251 247 246 247 247 247 243 239 238 239
323 321 317 313 312 309 301 296 293 289 282 273 265 259 254 248 241 235 230 228 224 222 220 220 221 222 224 223 222 221 221 221 221 221 223 223 222 222 221 216 214 214 215 216 219 222 225 227 227 229 231 233 234 231 228 228 227 227 227 230 234 237 235 233 234 235 235 234 235 237 240 245 250 255 257 254 249 246 246 248 248 243 237 237 238
322 320 318 313 311 310 305 299 294 288 281 272 263 255 248 243 236 231 229 227 224 220 219 218 219 222 223 224 224 224 224 224 224 225 227 226 223 220 219 218 217 218 220 221 221 222 225 226 226 227 230 232 232 229 227 226 226 226 227 229 232 235 236 234 234 236 236 236 236 237 239 243 247 253 258 257 252 247 244 247 248 244 240 239 239
321 319 318 313 309 307 305 301 295 289 282 273 261 250 244 238 232 228 228 227 224 220 218 218 220 221 223 225 227 228 229 229 229 230 229 229 227 223 219 218 218 219 221 223 223 224 225 225 225 226 229 229 227 226 225 225 225 225 226 227 229 233 235 235 235 236 236 236 236 237 239 242 245 251 258 258 255 250 246 245 246 245 244 243 242
320 319 317 314 309 307 305 303 297 289 282 273 261 248 239 234 230 227 228 229 225 221 219 219 219 220 222 226 229 231 233 233 232 231 230 229 228 225 222 219 217 216 218 220 222 223 224 224 225 227 227 226 224 223 223 223 224 225 225 226 227 229 233 235 235 235 234 234 235 236 239 242 244 249 256 258 257 253 249 245 245 245 245 246 245
320 318 315 313 310 307 307 304 298 290 282 272 261 248 237 231 229 227 229 231 228 224 220 219 218 220 222 226 230 233 235 235 232 229 228 229 227 226 225 221 217 216 217 219 221 222 222 223 226 227 226 223 222 221 221 222 223 224 225 227 228 228 232 235 235 234 233 233 236 238 240 242 245 249 255 257 257 255 252 247 246 245 245 245 247
319 317 313 311 309 308 307 304 298 292 283 271 259 247 237 231 229 227 229 232 231 226 222 219 217 218 221 225 229 232 234 234 231 226 226 228 227 225 224 223 219 217 219 221 221 220 221 223 226 226 224 222 222 222 221 222 225 225 226 229 230 230 232 235 236 234 234 235 238 239 240 243 247 251 255 256 255 255 253 249 247 247 245 245 247
319 316 312 310 308 307 307 304 298 292 284 270 257 245 236 231 229 228 228 231 232 230 224 220 218 219 220 223 227 229 230 231 231 227 225 226 226 223 222 222 219 217 219 221 220 219 221 223 225 226 224 223 223 224 223 225 227 228 229 231 233 233 233 235 236 237 237 238 239 240 242 245 250 253 256 257 255 253 252 251 249 248 247 246 247
318 315 311 309 308 307 306 303 297 290 282 269 256 244 236 231 229 228 227 230 233 232 228 223 220 219 220 222 226 228 228 229 231 229 225 224 224 222 221 220 219 217 218 220 220 220 221 223 225 226 225 224 224 225 226 228 230 230 230 231 233 234 234 236 238 238 239 240 241 242 245 248 251 253 256 256 254 252 252 252 251 249 246 245 246
316 313 309 307 306 306 306 303 297 289 280 267 255 244 235 229 227 227 227 229 232 233 231 225 221 219 220 221 224 227 227 228 230 230 227 223 221 220 219 218 217 217 217 219 220 221 222 223 224 225 225 225 225 227 227 228 229 229 229 230 232 233 233 236 239 239 239 240 241 243 246 248 250 252 253 253 251 250 251 252 251 249 247 246 246
314 309 306 304 304 304 304 302 296 288 279 267 254 244 235 228 226 226 227 230 232 234 232 227 221 219 219 220 223 226 227 227 229 230 229 223 218 217 217 215 215 216 217 218 220 223 224 223 224 226 226 226 228 229 229 227 226 226 226 227 228 229 231 234 237 238 238 239 240 241 244 245 247 250 250 248 247 247 249 250 251 250 249 249 248
312 307 304 303 302 302 302 300 294 285 278 268 254 245 237 230 225 225 226 229 231 234 234 230 224 220 219 220 222 225 226 227 228 230 229 225 218 215 215 215 213 215 216 217 219 223 226 225 225 226 227 228 229 230 229 226 225 225 225 226 226 226 228 232 235 235 236 237 238 240 242 243 245 247 247 246 245 246 247 248 249 250 250 250 250
310 305 303 301 300 301 300 297 292 284 277 271 257 245 239 233 228 225 225 227 230 232 234 232 227 222 219 220 222 224 225 226 227 228 228 226 220 215 215 215 214 215 216 217 219 222 225 226 226 227 228 229 228 228 228 227 225 226 227 227 226 226 228 230 232 232 233 233 235 237 239 241 242 244 246 246 244 244 246 247 249 250 251 251 252
310 305 302 301 300 301 299 294 289 283 276 271 260 245 239 235 231 228 226 225 227 230 232 232 230 225 220 220 221 223 223 225 226 226 226 226 223 218 215 215 216 216 217 218 219 221 224 225 226 227 228 229 228 227 228 228 228 228 228 227 227 227 228 230 231 232 232 232 233 235 237 239 240 242 244 246 245 244 244 246 248 249 251 253 254
310 305 303 302 301 301 299 293 287 282 276 271 262 247 238 235 233 230 228 225 224 227 229 230 230 226 221 219 220 222 222 224 225 226 225 225 224 222 218 217 217 217 218 219 220 221 223 225 225 226 228 229 228 228 228 228 229 230 231 229 227 226 227 229 231 233 234 234 234 235 236 237 239 241 243 244 245 245 245 245 247 248 250 252 254
308 305 304 303 301 301 299 293 286 283 278 271 263 250 238 234 233 231 229 227 224 225 227 228 228 227 222 218 219 220 221 222 224 225 225 224 224 224 222 220 219 219 219 220 221 222 223 225 226 226 227 229 229 230 229 229 229 230 231 231 229 227 227 228 230 232 233 234 235 236 237 238 240 242 243 244 245 246 245 245 246 248 251 253 255
307 305 305 303 301 300 299 292 284 282 279 272 263 254 241 234 233 232 231 229 226 225 226 227 227 226 222 218 218 220 221 222 222 224 225 225 225 225 225 223 222 221 221 221 222 223 224 225 226 227 228 229 229 230 230 230 230 230 231 231 231 229 229 229 230 231 233 234 235 236 238 239 241 242 243 245 246 247 248 248 248 249 251 254 256
306 306 306 304 300 299 298 292 286 282 278 269 262 257 248 237 233 232 231 231 228 226 226 228 227 225 223 219 218 219 221 222 222 222 224 225 226 226 226 225 225 224 223 222 223 224 225 226 227 227 228 229 229 230 230 231 231 230 230 231 231 231 231 231 232 233 234 235 236 238 239 240 242 242 243 245 246 248 249 251 251 252 253 254 255
304 306 308 305 301 300 298 294 289 283 277 268 260 258 255 246 237 232 232 232 231 229 228 228 228 227 224 220 218 219 222 223 223 222 223 224 225 227 228 227 226 225 225 225 224 224 225 226 227 227 228 229 230 230 231 231 231 232 232 232 232 233 233 233 234 235 236 237 239 240 241 242 243 243 244 245 246 247 249 251 252 253 254 255 256
302 305 308 306 304 302 299 295 290 284 278 270 262 258 258 254 246 237 233 233 234 232 230 230 230 229 226 223 219 219 220 223 224 225 224 223 224 226 228 229 228 226 226 227 227 226 226 226 227 228 229 229 230 231 231 232 232 233 233 234 235 235 235 235 236 236 238 239 241 242 244 245 245 246 246 247 247 248 249 251 252 253 254 255 256
301 304 307 307 305 303 300 295 289 283 278 273 267 262 259 257 254 246 238 234 234 235 234 232 231 230 229 226 222 220 219 221 223 225 226 226 225 226 228 230 231 229 226 226 228 229 228 228 228 229 229 230 231 232 233 233 233 234 234 235 237 238 238 238 239 239 240 241 242 244 246 247 247 248 249 249 250 250 251 251 252 253 254 255 257
300 303 305 306 305 301 297 292 287 282 277 274 270 267 264 260 257 253 246 239 235 235 236 235 234 232 231 229 227 224 221 220 221 223 225 227 227 227 228 230 232 232 230 228 228 229 230 230 230 230 231 231 232 232 233 234 235 236 236 237 238 239 241 242 242 243 243 243 244 245 246 248 248 249 250 251 251 252 252 253 253 254 255 256 257
298 301 303 305 303 297 291 286 282 277 274 272 271 270 268 264 260 256 251 246 240 236 236 236 236 235 233 232 231 228 225 223 222 222 223 225 227 228 228 229 231 233 233 232 230 229 230 231 232 232 233 233 233 234 234 235 236 238 238 239 240 240 241 243 244 245 245 246 246 247 248 249 249 250 251 251 252 252 253 253 254 254 255 257 258
294 298 301 302 301 295 287 281 276 273 270 268 269 270 270 268 264 259 254 249 244 239 236 235 236 236 235 234 233 232 230 228 226 224 224 224 225 226 228 229 230 231 233 234 234 232 231 231 232 233 234 235 235 236 236 236 237 238 239 241 241 242 242 243 244 246 247 248 248 249 250 250 251 251 252 252 252 253 254 254 255 255 256 257 259
291 295 298 300 298 292 285 278 273 269 266 265 267 269 270 269 267 262 257 252 248 243 239 236 235 235 236 236 236 235 234 232 230 228 227 227 226 226 227 229 230 231 232 234 235 235 235 234 233 233 233 234 235 237 238 238 239 240 240 241 242 243 244 244 245 246 248 249 249 250 251 251 252 252 253 253 254 254 255 256 257 257 258 259 259
287 289 293 296 294 289 283 278 271 265 262 262 264 267 269 269 267 264 259 254 250 246 242 239 237 235 235 236 237 236 235 235 234 232 230 230 230 230 230 229 230 230 232 234 235 235 236 236 236 235 235 235 235 236 237 238 239 240 241 242 243 244 244 245 246 247 248 249 250 251 251 252 252 253 253 254 254 255 255 256 257 258 259 260 260
283 284 287 290 290 286 281 276 269 261 257 257 259 263 266 268 268 266 262 257 252 248 244 242 240 237 236 235 236 237 237 235 235 234 232 231 231 232 232 232 231 230 231 233 235 236 237 237 237 238 238 238 237 237 237 237 239 240 241 242 243 244 245 246 246 247 248 249 250 251 252 253 254 254 255 255 255 255 256 256 257 257 258 259 260
283 283 285 286 286 283 277 271 264 257 254 253 255 260 264 266 267 267 265 261 257 253 248 244 242 240 238 236 236 237 238 238 237 236 234 233 232 232 233 234 234 233 231 231 233 235 237 238 239 239 240 240 240 240 240 240 240 241 242 242 243 243 244 245 246 247 247 248 249 251 252 252 253 254 255 256 256 256 257 257 257 258 258 259 259
283 283 283 285 284 279 272 265 259 255 254 254 256 259 261 262 262 263 263 262 260 258 255 251 247 244 242 240 238 237 238 239 239 239 238 236 234 232 232 233 233 234 234 233 232 232 234 236 238 239 240 241 241 241 242 242 242 243 243 244 245 245 245 245 246 246 247 247 248 249 250 251 252 252 253 254 255 256 257 257 258 258 258 259 259
281 280 280 281 279 273 265 259 254 252 252 253 255 257 258 259 260 260 261 261 261 260 258 257 254 251 247 245 242 240 239 239 239 240 241 240 238 235 234 233 233 233 234 234 234 233 233 234 235 236 238 239 241 241 242 242 243 243 244 245 246 246 247 247 248 248 249 249 249 249 249 250 251 252 253 253 254 255 256 257 258 258 259 259 260
279 277 276 275 271 266 260 255 251 250 250 251 253 256 258 259 260 260 261 261 261 260 259 258 257 255 253 250 247 245 243 242 241 241 241 241 240 239 237 236 234 234 234 234 235 235 235 234 234 235 236 237 239 240 241 242 242 243 243 244 245 246 247 248 248 249 250 251 251 251 251 251 252 252 252 253 254 255 256 257 258 258 259 260 260
278 275 272 267 262 259 256 252 249 249 250 251 254 256 258 259 260 260 260 260 260 259 259 258 257 257 257 255 253 251 248 246 245 244 243 242 242 242 241 240 238 237 236 235 236 236 236 236 236 235 236 236 237 238 240 241 242 242 242 243 244 245 246 246 247 248 249 250 251 252 252 253 253 253 254 254 254 255 256 256 257 258 259 259 260
276 272 267 261 256 254 252 249 248 248 250 252 254 255 256 258 259 259 259 259 259 259 258 257 257 256 256 256 256 255 253 251 249 247 245 244 243 243 243 243 242 241 239 238 238 237 237 237 237 237 237 237 237 238 239 240 241 242 242 243 243 244 245 246 246 247 248 248 249 250 251 252 253 254 255 255 256 256 257 257 257 258 259 259 260
272 268 262 257 253 252 250 248 248 249 250 252 254 255 256 257 258 259 260 260 261 260 259 258 257 257 256 256 256 255 254 254 252 251 249 247 245 244 243 243 244 243 242 241 241 240 239 239 239 239 238 238 238 239 239 239 240 241 241 242 243 243 244 245 246 246 247 248 248 249 250 251 252 253 254 255 255 256 257 257 258 258 259 260 260
269 264 259 255 252 251 249 248 248 250 251 253 254 255 256 257 258 260 261 263 264 264 264 262 260 259 258 258 258 257 256 255 254 253 252 250 248 247 245 244 244 244 244 243 243 242 241 241 241 240 240 240 240 240 240 240 240 241 241 242 242 243 243 244 245 246 247 247 248 249 250 251 251 252 253 254 254 255 256 257 257 258 259 260 260
266 262 258 255 253 252 250 249 250 251 252 253 254 255 256 258 260 263 265 266 268 269 269 267 266 264 263 261 260 260 259 257 256 254 253 252 251 249 248 246 245 244 244 244 244 243 243 243 242 242 242 241 241 241 241 241 241 241 242 242 242 243 243 243 244 245 246 246 247 248 249 250 251 251 252 253 254 254 255 256 257 257 258 259 260
266 263 260 258 257 255 254 254 255 256 257 258 259 259 260 262 264 266 268 270 271 272 272 271 270 269 267 265 264 262 261 260 258 257 255 253 251 250 250 248 247 245 245 244 244 244 244 244 243 243 243 243 243 243 242 243 243 243 243 243 243 244 244 244 244 244 245 246 246 247 248 249 250 251 251 252 253 254 255 255 256 257 258 258 259
264 263 261 260 260 259 259 260 261 262 263 264 265 266 267 267 268 269 271 272 273 274 273 273 272 271 270 269 267 265 263 262 260 258 257 256 254 253 251 251 249 248 247 246 246 245 245 245 245 244 244 244 244 244 244 244 244 244 245 245 245 245 245 245 245 246 246 246 247 247 248 249 249 250 251 251 252 253 254 255 256 256 257 258 259
264 264 263 263 263 264 264 265 266 267 268 269 269 270 271 271 271 271 271 272 273 273 273 273 273 273 273 272 271 269 267 265 263 261 259 258 257 256 255 254 253 252 251 250 249 249 248 248 247 247 246 246 246 246 246 246 246 246 246 246 247 247 247 247 247 247 247 248 248 248 249 250 250 251 251 252 252 253 254 255 256 256 257 258 259